Flag for Switzerland Weather past 2 weeks in Lancy, Geneva, Switzerland

Now
79 °F

Sunny.


Feels Like: 79 °F
Forecast: 61 / 87 °F
Wind: 9 mph from Southwest

Location: Geneva Cointrin Airport

Current Time: Aug 28, 2015 at 12:21:40 PM

Latest Report: Aug 28, 2015 at 11:50 AM


Visibility: 10 mi

Pressure: 30.12 "Hg

Humidity: 45%

Dew point: 55 °F

Location of LancyLocation

Historic Weather in Lancy — Graph

°F

Lancy temperature yesterday

Maximum temperature yesterday: 86 °F (at 4:20 PM)
Minimum temperature yesterday: 57 °F (at 4:50 AM)
Average temperature yesterday: 73 °F

Past Weeks' High & Low Weather Summary

 TemperatureHumidityPressure
High91 °F (Aug 13, 3:50 PM)94% (Aug 13, 10:20 PM)30.24 "Hg (Aug 13, 10:20 PM)
Low50 °F (Aug 20, 4:20 AM)26% (Aug 22, 5:20 PM)29.74 "Hg (Aug 24, 4:20 AM)
Average65 °F66%30.01 "Hg
* Reported Aug 13 11:20 AM — Aug 28 11:20 AM, Lancy, Weather by CustomWeather, © 2015

Note: Actual official high and low records may vary slightly from our data, if they occured in-between our weather recording intervals... More about our weather records

Advertising

Lancy weather history for previous 24 hours

 ConditionsComfort  
Time TempWeatherWind HumidityBarometerVisibility
11:20 AM
Fri, Aug 28
79 °FPassing clouds.12 mph42%30.12 "HgN/A
10:50 AM77 °FSunny.10 mph44%30.12 "Hg10 mi
10:20 AM75 °FSunny.12 mph47%30.12 "Hg10 mi
9:50 AM73 °FPassing clouds.5 mph57%30.09 "HgN/A
9:20 AM72 °FPassing clouds.3 mph53%30.09 "HgN/A
8:50 AM70 °FSunny.7 mph60%30.09 "Hg10 mi
8:20 AM70 °FSunny.2 mph60%30.09 "Hg10 mi
7:50 AM68 °FSunny.3 mph64%30.07 "Hg10 mi
7:20 AM68 °FClear.8 mph60%30.07 "Hg10 mi
6:50 AM68 °FClear.7 mph60%30.07 "Hg10 mi
5:50 AM66 °FClear.6 mph64%30.07 "Hg10 mi
5:20 AM70 °FClear.7 mph57%30.07 "Hg10 mi
4:50 AM70 °FClear.6 mph57%30.07 "Hg10 mi
4:20 AM68 °FClear.6 mph60%30.04 "Hg10 mi
3:50 AM68 °FClear.2 mph64%30.04 "Hg10 mi
2:50 AM68 °FClear.1 mph64%30.04 "Hg10 mi
2:20 AM70 °FClear.1 mph60%30.04 "Hg10 mi
1:50 AM70 °FClear.3 mph60%30.04 "Hg10 mi
1:20 AM70 °FPassing clouds.6 mph60%30.04 "HgN/A
12:50 AM70 °FClear.2 mph60%30.04 "Hg10 mi
12:20 AM73 °FClear.7 mph53%30.04 "Hg10 mi
11:50 PM
Thu, Aug 27
73 °FClear.7 mph53%30.01 "Hg10 mi
11:20 PM73 °FClear.6 mph57%30.01 "Hg10 mi
10:50 PM75 °FClear.6 mph54%30.01 "Hg10 mi
10:20 PM75 °FPassing clouds.6 mph54%30.01 "HgN/A
9:50 PM77 °FClear.12 mph51%29.98 "Hg10 mi
9:20 PM77 °FSunny.13 mph54%29.98 "Hg10 mi
8:50 PM79 °FSunny.12 mph51%29.98 "Hg10 mi
8:20 PM79 °FSunny.12 mph51%29.95 "Hg10 mi
7:50 PM81 °FPassing clouds.8 mph45%29.95 "HgN/A
7:20 PM82 °FSunny.13 mph42%29.95 "Hg10 mi
6:50 PM82 °FSunny.13 mph42%29.95 "Hg10 mi
6:20 PM84 °FPassing clouds.9 mph37%29.95 "HgN/A
5:50 PM86 °FPassing clouds.15 mph33%29.95 "HgN/A
5:20 PM86 °FSunny.16 mph33%29.95 "Hg10 mi
4:50 PM86 °FSunny.18 mph31%29.95 "Hg10 mi
4:20 PM86 °FPassing clouds.13 mph33%29.95 "HgN/A
3:50 PM84 °FPassing clouds.13 mph35%29.95 "HgN/A
3:20 PM82 °FPassing clouds.13 mph35%29.98 "HgN/A
2:50 PM82 °FSunny.16 mph35%29.98 "Hg10 mi
2:20 PM84 °FSunny.17 mph33%29.98 "Hg10 mi
1:50 PM82 °FPassing clouds.13 mph35%29.98 "HgN/A
1:20 PM82 °FSunny.14 mph37%29.98 "Hg10 mi
12:50 PM81 °FPassing clouds.12 mph37%30.01 "HgN/A
12:20 PM79 °FPassing clouds.6 mph48%30.01 "HgN/A
Weather by CustomWeather, © 2015

See weather overviewHow to use our weather pages